ONEWEB-0440 (50503 NORAD) Tracking and Keplerian Element Data

This shows tracking and keplerian element data for the satellite.

Feedback or suggestion? Click here.




ElementValue
Catalog50503
NameONEWEB-0440
Epoch Orbit130
Epoch Day140.58334491
Epoch Year2022
RAAN305.1699
Inclination87.2164
Eccentricity0.0003429
Argument of Perigee131.7727
Mean Anonmoly102.252
Mean Motion14.9251542
Decay Rate-0.00060697
L11 50503U 21132AL 22140.58334491 -.00060697 00000+0 -59754-2 0 9999
L22 50503 87.2164 305.1699 0003429 131.7727 102.2520 14.92515420 1301

Live tracking and technical data element details for ONEWEB-0440 (NORAD 50503). ONEWEB-0440 can be tracked NOW for your location showing map with azimuth and elevation plus other details from your city location.

Track the satellite on the map from your city or location and see movement details for azimuth, elevation, latitude, longitude, range, height, and movement on the map or in text.







IsCatalogInMostPopularTable: catalog: 50503, numindb: 25
Update: records affected: 1



GetName: 50503 ONEWEB-0440

Hit Count: updated at: Mon, 23 May 2022 21:08:05 GMT